{"data":{"norad_id":64378,"epoch":"2026-05-24T22:00:41.133600Z","epoch_age_seconds":75987,"freshness":"FRESH","line1":"1 64378U 25127J   26144.91714275  .00181308  00000+0  13832-2 0  9997","line2":"2 64378  43.0000 344.8233 0001943 264.9841  95.0805 15.70884708 55606","mean_motion":15.70884708,"eccentricity":0.0001943,"inclination_deg":43,"raan_deg":344.8233,"arg_perigee_deg":264.9841,"mean_anomaly_deg":95.0805,"bstar":0.0013832,"rev_number":5560,"period_min":91.668089495464,"perigee_km":355.05876658622,"apogee_km":357.67579494973,"semimajor_km":6734.504280768,"source":"CELESTRAK","updated_at":"2026-05-25T13:38:20.411176Z"}}